Find Starlink 2322

NORAD ID: 47791 Int'l Des: 2021-018 Owner: SPXS Country: US Constellation: starlink operational
LEOCIRCULAR

リアルタイム位置

3D地球を読み込み中...

Starlink 2322について

説明を読み込み中...

次回通過

Passes for default location (London). Set your location on the main map for personalized predictions.

高度履歴

Loading altitude history...

軌道要素

1 47791U 21018E 26122.01174345 .00000214 00000-0 18656-4 0 9995
2 47791 53.1593 355.0310 0001009 100.1215 259.9900 15.31707301284908
Epoch: May 2, 2026 • Age: 12 hours

現在のステータス

高度 474.8 km
速度 7.63 km/s
衛星直下点 -13.90°S, 69.47°W
打ち上げ日 Mar 11, 2021
運用期間 5.1 years
タイプ internet

技術仕様

分類 Payload
質量 260.00 kg
乾燥質量 248.00 kg
総質量 260.00 kg
長さ 0.20 m
直径 2.80 m
スパン 9.00 m
形状 Box + pan
製造者 SPXS
バスタイプ Starlink
フェーズステータス In Orbit
所有者/国 SPXS/US

Most Searched